Regional Weather Roundup
Issued by NWS

Home | Current Version | Previous Version | Text Only | Print | Product List | Glossary On
Versions: 1 2 3 4 5 6 7 8 9 10 11 12 13 14 15 16 17 18 19 20 21 22 23 24 25 26 27
000
ASUS45 KBOI 211210
RWRID
WEATHER ROUNDUP FOR IDAHO
NATIONAL WEATHER SERVICE BOISE ID
600 AM MDT MON APR 21 2014

NOTE: "FAIR" INDICATES FEW OR NO CLOUDS BELOW 12000 FEET
WITH NO SIGNIFICANT WEATHER AND/OR OBSTRUCTIONS TO VISIBILITY

IDZ012-014-211300-
SOUTHWEST IDAHO


CITY           SKY/WX    TMP DP  RH WIND       PRES   REMARKS
BOISE          PTCLDY    45  27  49 SE7       30.15R
CALDWELL       PTCLDY    37  23  56 SE6       30.16S WCI  33
MOUNTAIN HOME  CLEAR     35  24  64 E9        30.17R WCI  28
$$

IDZ016-017-211300-
SOUTHCENTRAL IDAHO


CITY           SKY/WX    TMP DP  RH WIND       PRES   REMARKS
BURLEY         CLEAR     33  25  72 E5        30.21S WCI  29
JEROME         CLEAR     37  21  52 E10       30.20S WCI  30
TWIN FALLS     CLEAR     41  22  46 S8        30.19F
$$

IDZ019>023-211300-
SOUTHEAST IDAHO


CITY           SKY/WX    TMP DP  RH WIND       PRES   REMARKS
IDAHO FALLS    CLEAR     29  19  66 N6        30.26R WCI  23
POCATELLO      CLEAR     34  18  52 CALM      30.24S
REXBURG        CLEAR     31  24  75 E6        30.26F WCI  25
$$

IDZ006-010-011-018-031-032-211300-
CENTRAL IDAHO MOUNTAINS


CITY           SKY/WX    TMP DP  RH WIND       PRES   REMARKS
MCCALL         PTCLDY    29  21  72 CALM      30.19S
HAILEY         CLEAR     37  19  48 NW7       30.24S WCI  32
STANLEY          N/A     21  17  84 CALM      30.27F
SALMON         PTCLDY    30  21  69 CALM      30.26S
CHALLIS        PTCLDY    32  32 100 S7        30.25F WCI  26
$$

IDZ002-004-006-007-026-211300-
NORTHERN IDAHO


CITY           SKY/WX    TMP DP  RH WIND       PRES   REMARKS
LEWISTON       MOCLDY    45  31  58 E6        30.13F
LOWELL           N/A     36  33  89 NW7       30.27S WCI  30
COEUR D`ALENE  PTCLDY    34  28  80 E8        30.17F WCI  27
MULLAN PASS    PTCLDY    34  21  59 S12       30.18S WCI  25
$$



USA.gov is the U.S. government's official web portal to all federal, state and local government web resources and services.